Voltar ao catálogo

RADUGA 17

AtivoMilitarGEO
NORAD 16250·PAYLOAD·🇷🇺 Russia

Lançado Nov 15, 1985 de Baikonur Cosmodrome

Loading…

TLE

AtualizadoSource: Space-Track

Época: Sep 13, 2026, 22:39 UTC

1 16250U 85107A   26256.94382443  .00000126  00000-0  00000+0 0  9991
2 16250   9.4612 317.8558 0014042 236.6445 172.5984  1.00147461152565

Acompanhe RADUGA 17 em tempo real com AllMySat

Download on the App Store